Location: Unspecified
(0.0000°N, 0.0000°E)
Time: 20:27:46
(UTC+00:00)

DMSP 5D-2 F13 DEB - Pass Details

Date: 15 February 2026
Orbit: 782 x 824 km, 98.9° (Epoch: 12 March)

Event Time Altitude Azimuth Distance (km) Brightness Sun altitude
Rises 19:45:48 0° 182° (S) 3,281 ? -22.4°
Reaches altitude 10° 19:48:15 10° 189° (S) 2,346 ? -23.0°
Maximum altitude 19:53:02 39° 257° (WSW) 1,160 ? -24.1°
Drops below altitude 10° 19:57:47 10° 325° (NW) 2,328 ? -25.3°
Sets 20:00:14 0° 333° (NNW) 3,253 ? -25.9°
